DW9497 Weather Reports


time (UTC)temp
F
wind
direction
speed
knots
gust
knots
rain 1hr
in
rain 24hr
in
rain mn
in
humidity
%
barometer
mb
20260507203105 51 121 0.0 0.9 0.00 0.00 0.00 77 1014.1
20260507201536 52 107 0.0 0.9 0.00 0.00 0.00 76 1014.0
20260507200036 52 120 0.0 1.7 0.00 0.00 0.00 76 1013.9
20260507194536 52 129 0.0 1.7 0.00 0.00 0.00 77 1013.7
20260507193038 53 98 0.0 1.7 0.00 0.00 0.00 77 1013.6
20260507191537 53 124 0.0 3.5 0.00 0.00 0.00 78 1013.7
20260507190033 52 101 0.0 1.7 0.00 0.00 0.00 81 1013.6
20260507184531 53 293 0.0 0.0 0.00 0.00 0.00 82 1013.6
20260507183029 53 294 0.0 0.9 0.00 0.00 0.00 78 1013.6
20260507181527 53 292 0.0 0.9 0.00 0.00 0.00 75 1013.5
20260507180026 54 302 0.0 0.9 0.00 0.00 0.00 72 1013.5
20260507174535 55 271 0.0 3.5 0.00 0.00 0.00 67 1013.4
20260507173048 56 114 0.0 2.6 0.00 0.00 0.00 64 1013.3
20260507171526 56 125 0.0 3.5 0.00 0.00 0.00 63 1013.3
20260507170025 57 92 0.9 5.2 0.00 0.00 0.00 63 1013.3
20260507164523 57 127 0.9 4.3 0.00 0.00 0.00 62 1013.3
20260507163026 57 119 0.9 3.5 0.00 0.00 0.00 62 1013.2
20260507161525 57 120 0.9 4.3 0.00 0.00 0.00 62 1013.2
20260507160022 57 140 0.9 7.0 0.00 0.00 0.00 60 1013.3
20260507154525 58 163 1.7 7.0 0.00 0.00 0.00 59 1013.3
20260507153020 59 103 1.7 7.0 0.00 0.00 0.00 57 1013.2
20260507151518 59 110 0.9 4.3 0.00 0.00 0.00 61 1013.3
20260507150032 57 107 0.9 5.2 0.00 0.00 0.00 62 1013.4
20260507144518 57 98 0.9 4.3 0.00 0.00 0.00 63 1013.6
20260507143014 57 101 1.7 5.2 0.00 0.00 0.00 61 1013.7
20260507141513 58 123 1.7 5.2 0.00 0.00 0.00 60 1013.9
20260507140014 58 113 0.9 5.2 0.00 0.00 0.00 59 1013.9
20260507134511 60 124 1.7 5.2 0.00 0.00 0.00 56 1014.0
20260507133011 59 136 2.6 6.1 0.00 0.00 0.00 57 1014.0
20260507131506 58 122 0.9 7.0 0.00 0.00 0.00 60 1014.2
20260507130005 57 209 1.7 8.7 0.00 0.00 0.00 59 1014.3
20260507124503 57 124 1.7 7.0 0.00 0.00 0.00 59 1014.4
20260507123002 57 116 1.7 6.1 0.00 0.00 0.00 60 1014.4
20260507121602 56 82 2.6 5.2 0.00 0.00 0.00 61 1014.5
20260507120056 56 86 0.9 6.1 0.00 0.00 0.00 63 1014.6
20260507114608 55 133 0.9 5.2 0.00 0.00 0.00 66 1014.6
20260507113050 54 113 1.7 5.2 0.00 0.00 0.00 67 1014.7
20260507111546 54 120 1.7 5.2 0.00 0.00 0.00 69 1014.7
20260507110045 52 99 2.6 5.2 0.00 0.00 0.00 73 1014.9
20260507104540 51 127 1.7 4.3 0.00 0.00 0.00 74 1015.1
20260507103043 50 140 0.9 5.2 0.00 0.00 0.00 77 1015.2
20260507101537 49 90 2.6 4.3 0.00 0.00 0.00 77 1015.2
20260507100035 48 116 1.7 5.2 0.00 0.00 0.00 79 1015.1
20260507094534 48 348 1.7 4.3 0.00 0.00 0.00 80 1015.1
20260507093027 47 135 0.9 4.3 0.00 0.00 0.00 81 1015.1
20260507091531 47 124 0.9 3.5 0.00 0.00 0.00 82 1015.1
20260507090024 46 92 1.7 5.2 0.00 0.00 0.00 82 1015.2
20260507084522 46 109 1.7 4.3 0.00 0.00 0.00 82 1015.2
20260507083021 46 129 1.7 4.3 0.00 0.00 0.00 83 1015.1
20260507081520 46 119 0.0 2.6 0.00 0.00 0.00 83 1015.0
20260507080019 45 96 2.6 6.1 0.00 0.00 0.00 84 1015.1
20260507074519 45 94 0.9 2.6 0.00 0.00 0.00 84 1015.1
20260507073018 45 146 1.7 4.3 0.00 0.00 0.00 84 1015.0
20260507071519 45 129 0.0 3.5 0.00 0.00 0.00 85 1015.0
20260507070027 45 130 0.9 4.3 0.00 0.00 0.00 85 1014.9
20260507064517 44 118 0.9 3.5 0.00 0.00 0.00 84 1015.0
20260507063016 44 139 1.7 5.2 0.00 0.00 0.00 84 1014.9
20260507061515 44 94 0.9 3.5 0.00 0.00 0.00 85 1014.8
20260507060018 44 120 0.9 4.3 0.00 0.00 0.00 85 1014.8
20260507054513 44 122 1.7 4.3 0.00 0.00 0.00 85 1014.7
20260507053012 44 109 0.9 2.6 0.00 0.00 0.00 85 1014.7
20260507051514 44 108 0.9 4.3 0.00 0.00 0.00 84 1014.7
20260507050020 44 122 1.7 5.2 0.00 0.00 0.00 84 1014.5
20260507044509 44 111 0.9 2.6 0.00 0.00 0.00 84 1014.6
20260507043008 44 117 0.9 3.5 0.00 0.00 0.00 84 1014.6
20260507041507 44 113 1.7 3.5 0.00 0.00 0.00 84 1014.6
20260507040006 44 125 0.9 5.2 0.00 0.00 0.00 84 1014.6
20260507034505 44 95 1.7 4.3 0.00 0.00 0.00 84 1014.6
20260507033129 44 96 1.7 4.3 0.00 0.00 0.00 84 1014.6
20260507031502 43 105 1.7 5.2 0.00 0.00 0.00 84 1014.6
20260507030001 43 116 0.0 3.5 0.00 0.00 0.00 84 1014.7
20260507024613 43 97 0.9 2.6 0.00 0.00 0.00 84 1014.7
20260507023059 43 124 0.9 2.6 0.00 0.00 0.00 83 1014.9
20260507021559 43 114 0.0 2.6 0.00 0.00 0.00 83 1014.8
20260507014559 44 104 0.9 2.6 0.00 0.00 0.00 82 1014.9
20260507013101 44 130 0.9 4.3 0.00 0.00 0.00 81 1015.0
20260507011553 44 129 0.9 1.7 0.00 0.00 0.00 81 1015.0
20260507010050 44 105 0.9 4.3 0.00 0.00 0.00 81 1015.0
20260507004548 44 122 0.9 2.6 0.00 0.00 0.00 81 1015.2
20260507003046 44 127 0.0 3.5 0.00 0.00 0.00 80 1015.2
20260507001545 45 113 0.9 4.3 0.00 0.00 0.00 79 1015.3
20260507000043 45 129 1.7 5.2 0.00 0.00 0.00 80 1015.3
20260506234552 45 115 0.9 3.5 0.00 0.00 0.00 81 1015.1
20260506233048 45 122 0.9 4.3 0.00 0.00 0.00 81 1015.1
20260506231538 45 117 0.0 3.5 0.00 0.00 0.00 80 1015.1
20260506230036 45 131 1.7 3.5 0.00 0.00 0.00 79 1015.0
20260506224540 46 110 0.0 1.7 0.00 0.00 0.00 77 1015.0
20260506223034 46 120 0.9 3.5 0.00 0.00 0.00 76 1014.9
20260506221534 47 131 0.0 4.3 0.00 0.00 0.00 75 1014.8
20260506220036 47 118 0.9 2.6 0.00 0.00 0.00 74 1014.8
20260506214533 48 110 0.0 2.6 0.00 0.00 0.00 73 1014.7
20260506213037 48 122 0.9 4.3 0.00 0.00 0.00 72 1014.6
20260506211531 49 117 1.7 5.2 0.00 0.00 0.00 72 1014.6
20260506210034 49 111 1.7 4.3 0.00 0.00 0.00 72 1014.5
20260506204530 49 127 0.9 3.5 0.00 0.00 0.00 72 1014.5